Regional Weather Roundup
Issued by NWS Little Rock, AR

Home | Current Version | Previous Version | Text Only | Print | Product List | Glossary Off
Versions: 1 2 3 4 5 6 7 8 9 10 11 12 13 14 15 16 17 18 19 20 21 22 23 24 25 26 27 28 29 30 31 32 33 34 35 36 37 38 39 40 41 42 43 44 45 46 47 48 49 50

000
ASUS44 KLZK 301905
RWRLZK

WEATHER ROUNDUP FOR ARKANSAS
NATIONAL WEATHER SERVICE LITTLE ROCK AR
200 PM CDT THU JUL 30 2015

NOTE: "FAIR" INDICATES FEW OR NO CLOUDS BELOW 12,000 FEET WITH NO
SIGNIFICANT WEATHER AND/OR OBSTRUCTIONS TO VISIBILITY.

ARZ001-003-010-029-302000-
NORTHWEST ARKANSAS

CITY           SKY/WX    TMP DP  RH WIND       PRES   REMARKS
FAYETTEVILLE   MOSUNNY   87  73  62 VRB5      30.17F HX  94
FORT SMITH     MOSUNNY   92  73  53 NE10      30.09F HX 100
HARRISON       MOSUNNY   84  62  47 E9        30.21F HX  85
BENTONVILLE    MOSUNNY   86  66  51 E8        30.20S HX  88
ROGERS         MOSUNNY   85  67  54 E10       30.20F HX  87
SILOAM SPGS    PTSUNNY   88  68  51 E7        30.17S HX  91
HIGHFILL       MOSUNNY   87  70  56 E6        30.18F HX  92
SPRINGDALE     MOSUNNY   86  70  58 NE9       30.20F HX  90
$$

ARZ004-005-016-302000-
NORTH CENTRAL ARKANSAS

CITY           SKY/WX    TMP DP  RH WIND       PRES   REMARKS
BATESVILLE     SUNNY     88  63  42 NE6       30.16S HX  88
FLIPPIN        SUNNY     88  61  40 CALM      30.16F HX  88
MTN HOME       SUNNY     85  59  41 VRB6      30.18F
$$

ARZ040-041-302000-
WEST CENTRAL ARKANSAS

CITY           SKY/WX    TMP DP  RH WIND       PRES   REMARKS
MENA           MOSUNNY   97  70  41 E8        30.12F THUNDER HX 103
MOUNT IDA      SUNNY     96  74  48 VRB3      30.08F HX 107
$$

ARZ009-017-025-026-028-302000-
NORTHEAST ARKANSAS

CITY           SKY/WX    TMP DP  RH WIND       PRES   REMARKS
JONESBORO      SUNNY     85  65  51 NE10      30.14F HX  86
NEWPORT        SUNNY     86  66  50 NE6       30.15F HX  88
WALNUT RIDGE   SUNNY     86  61  42 NE13      30.15F HX  86
BLYTHEVILLE    SUNNY     87  66  49 NE12      30.13F HX  89
$$

ARZ022-023-033-042-044-302000-
CENTRAL ARKANSAS

CITY           SKY/WX    TMP DP  RH WIND       PRES   REMARKS
LITTLE ROCK    MOSUNNY   92  68  45 NE8       30.12F HX  96
N LITTLE ROCK  MOSUNNY   95  69  43 E7G17     30.12F HX 100
JACKSONVILLE   MOSUNNY   91  65  42 E10       30.12F HX  93
SEARCY         SUNNY     89  66  46 NE14      30.14F HX  91
HOT SPRINGS    MOSUNNY   95  71  45 E8        30.10F HX 102
RUSSELLVILLE   SUNNY     91  67  44 VRB7      30.12F HX  94
$$

ARZ036-302000-
EAST ARKANSAS

CITY           SKY/WX    TMP DP  RH WIND       PRES   REMARKS
WEST MEMPHIS   SUNNY     89  66  46 N12       30.10F HX  91
$$

ARZ050-053-066-070-073-302000-
SOUTHWEST ARKANSAS

CITY           SKY/WX    TMP DP  RH WIND       PRES   REMARKS
ARKADELPHIA    FAIR      97  77  52 NE7       30.08F HX 112
CAMDEN         SUNNY     97  75  49 NE9       30.06F HX 109
TEXARKANA      MOSUNNY   97  74  47 E7        30.06F HX 108
EL DORADO      MOSUNNY   98  76  49 NE10      30.05F HX 112
DE QUEEN       MOSUNNY   98  73  44 MISG      30.02F THUNDER HX 108
$$

ARZ056-057-069-302000-
SOUTHEAST ARKANSAS

CITY           SKY/WX    TMP DP  RH WIND       PRES   REMARKS
PINE BLUFF     SUNNY     92  73  53 N9        30.10F HX 100
STUTTGART      SUNNY     90  66  45 NE15G21   30.11F HX  92
MONTICELLO     MOSUNNY   94  77  57 NE10G17   30.07F HX 108

$$





USA.gov is the U.S. government's official web portal to all federal, state and local government web resources and services.